Regional Weather Roundup
Issued by NWS

Home | Current Version | Previous Version | Text Only | Print | Product List | Glossary On
Versions: 1 2 3 4 5 6 7 8 9 10 11 12 13 14 15 16 17 18 19 20 21 22 23 24 25 26 27 28 29 30 31 32 33 34 35 36 37 38 39 40 41 42 43 44 45 46 47 48 49 50
000
ASPQ40 PGUM 041710
RWRPQ
WEATHER ROUNDUP FOR THE MARIANAS AND MICRONESIA
NATIONAL WEATHER SERVICE TIYAN GU
300 AM CHST SAT SEP 05 2015

GUZ001>004-041800-
MARIANA ISLANDS-

CITY           SKY/WX    TMP DP  RH WIND       PRES   REMARKS
GUAM AIRPORT   PTCLDY    77  75  94 CALM      29.78F
ANDERSEN AFB   PTCLDY    77  73  88 SW3       29.78F
ROTA AIRPORT   NOT AVBL
TINIAN AP      NOT AVBL
SAIPAN AP      PTCLDY    79  77  94 CALM      29.76F

$$

PMZ161-041800-
REPUBLIC OF PALAU-

CITY           SKY/WX    TMP DP  RH WIND       PRES   REMARKS
KOROR AP       MOCLDY    81  75  83 W10       29.85F
KOROR WSO      CLOUDY    82  72  69 W7        29.87F

$$

PMZ171>174-041800-
FEDERATED STATES OF MICRONESIA-

CITY           SKY/WX    TMP DP  RH WIND       PRES   REMARKS
YAP AIRPORT    LGT RAIN  79  77  94 SW14      29.82F
CHUUK AP       MOCLDY    82  77  83 SW8       29.85F HX  91
POHNPEI AP     NOT AVBL
POHNPEI WSO    CLOUDY    81  77  89 SW5       29.86F
KOSRAE AP      NOT AVBL

$$

PMZ181-041800-
REPUBLIC OF THE MARSHALL ISLANDS-

CITY           SKY/WX    TMP DP  RH WIND       PRES   REMARKS
KWAJALEIN AP   PTCLDY    82  75  78 W7        29.79S
MAJURO AP      NOT AVBL
MAJURO WSO     NOT AVBL

$$




USA.gov is the U.S. government's official web portal to all federal, state and local government web resources and services.